Regional Weather Roundup
Issued by NWS Boston, MA

Home | Current Version | Previous Version | Text Only | Print | Product List | Glossary On
Versions: 1 2 3 4 5 6 7 8 9 10 11 12 13 14 15 16 17 18 19 20 21 22 23 24 25 26 27 28 29 30 31 32 33 34 35 36 37 38 39 40 41 42 43 44 45 46 47 48 49 50
000
ASUS41 KBOX 221310
RWRBOX

REGIONAL WEATHER ROUNDUP
NATIONAL WEATHER SERVICE TAUNTON MA
900 AM EDT FRI AUG 22 2014

NOTE:  "FAIR" INDICATES FEW OR NO CLOUDS BELOW 12,000 FEET WITH NO
SIGNIFICANT WEATHER AND/OR OBSTRUCTIONS TO VISIBILITY.  THE FOLLOWING
OBSERVATION LOCATIONS DO NOT REPORT PRESENT WEATHER...PROVINCETOWN...
SMITHFIELD...BLOCK ISLAND...KEENE...AND OXFORD.

MAZALL-221400-
EASTERN MASSACHUSETTS

CITY           SKY/WX    TMP DP  RH WIND       PRES   REMARKS
BOSTON         PTSUNNY   66  63  88 N12       30.09S
BEVERLY        CLOUDY    64  61  90 VRB5      30.09F FOG
LAWRENCE       LGT RAIN  62  61  96 NE8       30.12S
BEDFORD        CLOUDY    61  61 100 NE5       30.09S
BLUE HILL        N/A     63  62  97 NE7       30.09S
NORWOOD        CLOUDY    67  62  84 NE9       30.08F
MARSHFIELD     CLOUDY    66  66 100 NE3       30.10R
PLYMOUTH       CLOUDY    67  62  84 NE8       30.08S
TAUNTON        CLOUDY    67  65  93 NE3       30.07S
NEW BEDFORD    LGT RAIN  67  63  87 NE6       30.06S
$$

MAZALL-221400-
CAPE COD AND THE ISLANDS

CITY           SKY/WX    TMP DP  RH WIND       PRES   REMARKS
FALMOUTH       CLOUDY    66  64  94 NE7       30.06F
HYANNIS        RAIN      67  64  90 NE6       30.05F FOG
CHATHAM        CLOUDY    69  62  78 NE10      30.08S
PROVINCETOWN   PTSUNNY   70  64  83 MISG      30.08S
NANTUCKET      FOG       64  63  96 NE12      30.05S VSB 1
MARTHAS VNYRD  CLOUDY    68  63  84 NE14      30.05F
$$

MAZALL-221400-
CENTRAL AND WESTERN MASSACHUSETTS

CITY           SKY/WX    TMP DP  RH WIND       PRES   REMARKS
WORCESTER      CLOUDY    60  57  89 NE6       30.11R
FITCHBURG      CLOUDY    64  58  80 NE6       30.12S
ORANGE         CLOUDY    63  59  87 NE5       30.10S
SPRINGFIELD    CLOUDY    64  61  88 NE3       30.07F
WESTFIELD      CLOUDY    66  61  84 NE5       30.08S
NORTH ADAMS    CLOUDY    62  59  90 E6        30.08R
PITTSFIELD     CLOUDY    61  59  93 E7        30.08R
$$

RIZALL-221400-
RHODE ISLAND

CITY           SKY/WX    TMP DP  RH WIND       PRES   REMARKS
PROVIDENCE     CLOUDY    66  63  90 N9        30.08S
NEWPORT        CLOUDY    68  61  78 NE8       30.06S
BLOCK ISLAND   CLOUDY    66  61  82 E10       30.06S
SMITHFIELD     CLOUDY    63  55  77 NE7       30.08F
WESTERLY       PTSUNNY   68  62  81 NE8       30.06F
$$

CTZALL-221400-
CONNECTICUT

CITY           SKY/WX    TMP DP  RH WIND       PRES   REMARKS
BRADLEY INTL   CLOUDY    66  59  78 N5        30.07S
HARTFORD       CLOUDY    67  60  78 NE6       30.06S
BRIDGEPORT     MOSUNNY   70  62  76 NE14      30.05S
DANBURY        CLOUDY    66  59  78 NE6       30.07R
GROTON         PTSUNNY   66  61  84 NE9       30.05F
NEW HAVEN      MOSUNNY   71  60  68 E9        30.05S
CHESTER        FAIR      64  61  88 E8        30.07S
MERIDEN        PTSUNNY   69  61  75 CALM      30.05F
WILLIMANTIC    CLOUDY    67  60  78 NE7       30.07F
OXFORD         CLOUDY    64  57  77 E8        30.08S
$$

MEZ002-015-021-024-NHZ003-005-008-011-012-014-VTZ005-008-221400-
NORTHERN NEW ENGLAND

CITY           SKY/WX    TMP DP  RH WIND       PRES   REMARKS
PORTLAND ME    CLOUDY    64  58  80 NE10      30.14S
BANGOR ME      PTSUNNY   68  57  68 E7        30.17S
CONCORD NH     CLOUDY    62  59  90 N5        30.12S
MANCHESTER NH  CLOUDY    62  59  90 N7        30.10S
NASHUA NH      CLOUDY    61  59  93 N7        30.12S
PORTSMOUTH NH  CLOUDY    65  62  87 NE8       30.10F
JAFFREY NH     LGT RAIN  59  57  93 NE5       30.13S
KEENE NH       CLOUDY    61  52  72 NW5       30.11S
BURLINGTON VT  CLOUDY    63  58  83 SE7       30.08S
MT. WASHINGTON FOG       45  45 100 SE18        N/A  VSB 1/16
$$

NYZ052-076-221400-
EASTERN NEW YORK

CITY           SKY/WX    TMP DP  RH WIND       PRES   REMARKS
ALBANY         CLOUDY    67  63  87 SE5       30.05R
NEW YORK CITY  PTSUNNY   70  62  76 E9        30.03S
$$

ANZALL-221400-
MARINE OBSERVATIONS

STATION/POSITION TIME  TEMP    WIND        PRES    VSBY  WAVE
                       AIR SEA DIR/SP/G                  HT/PER
                 (UTC) (F)     (DEG/KT/KT) (MB)    (MI)  (FT/S)
BOSTON BUOY      1250   66 66   40/  8/ 10 1018.8F         2/ 6
BUZZARDS BAY     1200           50/ 13/ 14 1018.5S
NANTUCKET SOUND  1250   65 70   70/ 10/ 12 1017.6F         1/ 7
MASS BAY-STELLWA 1204   67 67   40/  8/ 10   N/A    1 7/8  2/ 6
ISLE OF SHOALS   1300   64      50/ 14/ 15 1018.8F
S OF BLOCK IS    1208      68                N/A           3/ 7
$$

......................KEY.........................
  SKY/WX - SKY CONDITION/PRESENT WEATHER
  TMP    - TEMPERATURE IN FAHRENHEIT
  DWPT   - DEWPOINT IN FAHRENHEIT
  RH     - RELATIVE HUMIDITY IN PERCENT
  WIND   - DIRECTION AND SPEED IN MPH
  PRES   - MEAN SEA LEVEL PRESSURE IN INCHES OF HG
  WCI    - WIND CHILL INDEX
  VSB    - VISIBILITY IN MILES
  HX     - HEAT INDEX
  TC     - TEMPERATURE IN CELSIUS
  VRB    - VARIABLE WIND DIRECTION
  N/A    - NOT AVAILABLE


USA.gov is the U.S. government's official web portal to all federal, state and local government web resources and services.